CDT,Max TemperatureF,Mean TemperatureF,Min TemperatureF,Max Dew PointF,MeanDew PointF,Min DewpointF,Max Humidity, Mean Humidity, Min Humidity, Max Sea Level PressureIn, Mean Sea Level PressureIn, Min Sea Level PressureIn, Max VisibilityMiles, Mean VisibilityMiles, Min VisibilityMiles, Max Wind SpeedMPH, Mean Wind SpeedMPH, Max Gust SpeedMPH,PrecipitationIn, CloudCover, Events, WindDirDegrees
2012-9-1,84,72,59,57,52,48,82,53,29,30.11,30.07,30.02,10,10,10,14,6,22,0.00,0,,76
2012-9-2,89,73,57,66,60,54,88,66,40,30.04,29.96,29.89,10,10,5,10,3,,0.00,0,,146
2012-9-3,82,74,66,73,69,66,100,83,66,29.95,29.92,29.89,10,9,2,12,3,,0.04,2,Rain-Thunderstorm,205
2012-9-4,93,76,60,72,65,59,100,72,34,29.93,29.85,29.76,10,7,0,16,3,18,0.00,3,Fog-Thunderstorm,212
2012-9-5,82,68,55,63,55,48,100,67,35,29.93,29.85,29.70,10,10,2,36,8,53,0.68,1,Rain-Thunderstorm,308
2012-9-6,80,64,48,55,48,43,100,60,26,30.01,29.95,29.87,10,10,10,8,1,,0.00,1,Rain,138
2012-9-7,73,62,51,57,50,41,88,69,33,30.02,29.94,29.83,10,10,10,20,6,28,0.00,2,Rain-Thunderstorm,356
2012-9-8,78,62,46,48,44,37,93,59,24,30.04,29.96,29.80,10,10,10,31,9,40,0.00,1,,300
2012-9-9,73,60,46,52,47,41,100,66,31,30.20,30.13,30.03,10,10,10,10,5,,0.00,0,,345
2012-9-10,80,64,48,52,47,45,93,56,28,30.14,30.04,29.92,10,10,10,23,7,29,0.00,0,,179
2012-9-11,91,75,59,52,48,45,77,44,20,29.94,29.89,29.83,10,10,10,26,13,37,0.00,0,,187
2012-9-12,73,63,53,57,52,48,94,75,47,30.26,30.12,29.93,10,10,7,12,7,18,0.23,5,Rain,3
2012-9-13,71,61,51,52,46,34,100,68,25,30.38,30.32,30.25,10,10,4,8,2,,0.18,2,Rain,243
2012-9-14,78,62,46,50,44,36,100,60,21,30.33,30.29,30.26,10,10,10,7,4,,0.00,1,,162
2012-9-15,80,64,48,48,43,37,87,53,23,30.27,30.17,30.06,10,10,10,22,6,28,0.00,0,,198
2012-9-16,80,66,51,59,52,45,82,64,37,30.06,29.97,29.88,10,10,10,18,8,25,0.00,0,,207
2012-9-17,62,55,48,55,44,34,94,67,39,29.99,29.95,29.90,10,10,7,20,6,26,0.09,4,Rain,341
2012-9-18,60,48,37,41,35,28,100,61,29,30.04,30.00,29.93,10,10,10,14,5,20,0.00,3,,312
2012-9-19,75,62,50,45,37,30,62,43,21,29.93,29.80,29.69,10,10,10,32,10,38,0.00,1,,230
2012-9-20,64,53,42,37,33,28,76,49,26,29.94,29.92,29.88,10,10,10,18,8,28,0.00,1,,274
2012-9-21,64,56,48,48,41,34,88,61,40,29.92,29.85,29.80,10,10,10,17,6,22,0.02,5,Rain,274
2012-9-22,57,47,37,37,31,27,76,58,33,30.25,30.10,29.83,10,10,5,20,12,28,0.00,4,,320
2012-9-23,59,44,28,34,28,23,100,58,27,30.32,30.26,30.20,10,10,10,13,3,22,0.00,0,,314
2012-9-24,77,55,33,37,32,27,75,44,21,30.20,29.97,29.80,10,10,10,23,7,30,0.00,0,,217
2012-9-25,75,58,41,43,36,30,93,51,19,29.94,29.85,29.79,10,10,10,10,4,,0.00,0,,335
2012-9-26,69,52,35,37,34,30,93,56,23,30.19,30.07,29.94,10,10,10,9,2,16,0.00,0,,20
2012-9-27,69,52,35,43,37,34,93,61,28,30.26,30.21,30.17,10,10,10,8,2,,0.00,0,,182
2012-9-28,75,56,37,41,36,34,93,53,22,30.23,30.18,30.12,10,10,10,6,0,,0.00,0,,270
2012-9-29,82,62,42,45,37,34,76,46,17,30.14,30.08,30.01,10,10,10,17,3,22,0.00,0,,329
2012-9-30,78,60,42,43,38,30,87,51,17,30.03,29.97,29.92,10,10,1,9,1,,0.00,0,,66